FW7562 Weather Reports


time (UTC)temp
C
wind
direction
speed
KPH
gust
KPH
rain 1hr
cm
rain 24hr
cm
rain mn
cm
humidity
%
barometer
mb
20260507010057 5 279 0.0 3.2 0.00 1.04 1.04 94 1013.5
20260507004540 5 279 0.0 3.2 0.00 1.04 1.04 94 1013.2
20260507003039 5 279 0.0 3.2 0.00 1.04 1.04 94 1013.1
20260507001537 6 279 1.6 3.2 0.00 1.04 1.04 95 1012.9
20260507000035 6 279 0.0 3.2 0.00 1.04 1.04 95 1012.6
20260506234533 6 279 1.6 4.8 0.00 1.04 1.04 94 1012.5
20260506233033 6 279 0.0 3.2 0.00 1.04 1.04 95 1012.5
20260506231531 6 279 1.6 4.8 0.00 1.04 1.04 95 1012.4
20260506230030 6 298 3.2 6.4 0.00 1.04 1.04 95 1012.1
20260506224535 6 267 3.2 6.4 0.00 1.07 1.04 95 1012.2
20260506223027 6 268 4.8 11.3 0.00 1.07 1.04 95 1011.8
20260506221524 6 275 4.8 6.4 0.00 1.07 1.04 96 1011.5
20260506220134 6 248 4.8 6.4 0.00 1.07 1.04 96 1011.3
20260506214521 6 271 4.8 8.0 0.00 1.07 1.04 95 1011.7
20260506213019 6 264 6.4 12.9 0.00 1.07 1.04 95 1011.4
20260506211520 6 257 3.2 9.7 0.00 1.07 1.04 96 1011.0
20260506210014 6 266 4.8 9.7 0.03 1.07 1.04 96 1010.6
20260506204512 7 275 3.2 8.0 0.03 1.07 1.04 96 1010.3
20260506203012 7 250 4.8 11.3 0.08 1.07 1.04 96 1010.1
20260506201525 7 273 3.2 6.4 0.10 1.07 1.04 96 1009.6
20260506200006 7 272 3.2 9.7 0.10 1.40 1.02 95 1009.4
20260506194507 7 247 4.8 8.0 0.10 1.40 1.02 95 1009.3
20260506193002 7 255 3.2 6.4 0.05 1.35 0.97 95 1009.3
20260506191501 7 245 3.2 6.4 0.03 1.32 0.94 95 1009.3
20260506190100 8 246 3.2 6.4 0.03 1.30 0.91 95 1009.0
20260506184632 8 250 3.2 6.4 0.03 1.30 0.91 95 1008.8
20260506183107 8 251 1.6 8.0 0.05 1.30 0.91 94 1008.7
20260506181559 8 257 3.2 6.4 0.05 1.30 0.91 94 1008.2
20260506180056 9 270 4.8 6.4 0.03 1.27 0.89 93 1008.0
20260506174549 10 266 4.8 8.0 0.03 1.27 0.89 92 1007.7
20260506173049 12 251 1.6 6.4 0.00 1.24 0.86 93 1007.5
20260506171556 13 272 4.8 11.3 0.00 1.24 0.86 93 1007.4
20260506170050 13 196 4.8 12.9 0.00 1.24 0.86 94 1007.5
20260506164546 13 160 6.4 12.9 0.03 1.24 0.86 94 1007.5
20260506163042 13 169 6.4 12.9 0.03 1.24 0.86 94 1007.3
20260506161543 12 158 6.4 12.9 0.05 1.24 0.86 94 1007.2
20260506160047 12 168 6.4 11.3 0.10 1.24 0.86 94 1007.4
20260506154540 12 155 6.4 12.9 0.10 1.22 0.84 94 1007.4
20260506153040 12 158 4.8 12.9 0.13 1.22 0.84 94 1007.3
20260506151541 12 173 4.8 6.4 0.13 1.19 0.81 94 1007.5
20260506150039 12 153 3.2 16.1 0.10 1.14 0.76 94 1007.3
20260506144552 12 116 3.2 6.4 0.10 1.12 0.71 94 1007.3
20260506143037 12 119 3.2 9.7 0.13 1.09 0.71 93 1007.2
20260506141535 12 112 3.2 8.0 0.15 1.07 0.69 93 1007.5
20260506140035 12 165 4.8 6.4 0.23 1.04 0.66 93 1007.6
20260506134534 12 139 1.6 11.3 0.33 1.02 0.64 93 1007.4
20260506133034 12 121 1.6 8.0 0.38 0.97 0.58 92 1007.6
20260506131541 12 115 3.2 9.7 0.41 0.91 0.53 92 1008.2
20260506130031 12 130 4.8 24.1 0.33 0.81 0.43 92 1008.2
20260506124533 12 147 6.4 11.3 0.23 0.69 0.30 92 1008.3
20260506123028 12 115 3.2 6.4 0.13 0.58 0.20 91 1007.8
20260506121527 12 128 3.2 6.4 0.08 0.51 0.13 91 1007.7
20260506120027 12 140 3.2 4.8 0.05 0.48 0.10 91 1007.8
20260506114535 12 132 3.2 4.8 0.03 0.56 0.08 90 1008.4
20260506113025 12 156 3.2 6.4 0.05 0.56 0.08 89 1008.3
20260506111524 12 143 1.6 8.0 0.03 0.53 0.05 89 1008.3
20260506110027 12 123 1.6 4.8 0.05 0.53 0.05 89 1008.2
20260506104523 12 106 3.2 6.4 0.05 0.53 0.05 88 1008.3
20260506103022 12 155 1.6 4.8 0.03 0.51 0.03 87 1008.4
20260506101524 12 155 1.6 8.0 0.03 0.51 0.03 85 1008.2
20260506100023 12 162 3.2 9.7 0.00 0.48 0.00 87 1007.9
20260506094518 12 169 1.6 6.4 0.00 0.48 0.00 87 1007.8
20260506093015 12 169 3.2 4.8 0.00 0.48 0.00 88 1007.8
20260506091513 11 169 1.6 9.7 0.00 0.48 0.00 89 1008.1
20260506090010 11 161 4.8 8.0 0.00 0.48 0.00 91 1008.2
20260506084509 10 155 1.6 9.7 0.00 0.48 0.00 90 1008.4
20260506083009 10 25 0.0 3.2 0.00 0.48 0.00 89 1008.6
20260506081510 10 26 0.0 0.0 0.00 0.48 0.00 89 1008.4
20260506073006 11 29 1.6 4.8 0.00 0.48 0.00 89 1008.5
20260506071506 11 31 1.6 3.2 0.00 0.48 0.00 89 1008.4
20260506061601 11 46 0.0 4.8 0.00 0.48 0.00 89 1009.2
20260506044549 11 360 1.6 6.4 0.00 0.48 0.00 87 1010.0
20260506043047 11 360 1.6 4.8 0.00 0.48 0.00 87 1010.0
20260506041548 11 360 0.0 4.8 0.00 0.48 0.00 86 1010.1
20260506040040 11 34 1.6 6.4 0.00 0.48 0.00 86 1010.4
20260506034540 12 38 0.0 4.8 0.00 0.48 0.48 85 1010.4
20260506033038 12 38 1.6 3.2 0.00 0.48 0.48 85 1010.8
20260506031538 12 270 1.6 3.2 0.00 0.48 0.48 85 1010.7
20260506030054 12 247 1.6 6.4 0.00 0.48 0.48 83 1010.8
20260506024537 12 106 1.6 8.0 0.00 0.48 0.48 83 1010.4
20260506023028 13 254 4.8 14.5 0.00 0.48 0.48 84 1010.4
20260506021527 14 265 1.6 6.4 0.00 0.48 0.48 85 1010.2
20260506020026 15 313 1.6 6.4 0.00 0.48 0.48 85 1010.3
20260506014523 15 296 1.6 4.8 0.00 0.48 0.48 84 1010.0
20260506013023 15 296 1.6 4.8 0.00 0.48 0.48 84 1010.1
20260506011530 16 299 0.0 4.8 0.00 0.48 0.48 84 1009.3